459  
ASUS43 KDTX 040310  
RWRMI  
MICHIGAN HOURLY REGIONAL WEATHER ROUNDUP  
NATIONAL WEATHER SERVICE DETROIT/PONTIAC MI  
1000 PM EST WED MAR 03 2021  
 
NOTE: "FAIR" INDICATES FEW OR NO CLOUDS BELOW 12,000 FEET WITH NO  
SIGNIFICANT WEATHER AND/OR TO VISIBILITY
.  
 
MIZ047>049-052>055-059>063-066>070-074>076-081>083-040400-  
SOUTHEAST LOWER MICHIGAN  
 
CITY SKY/WX TMP DP RH WIND PRES REMARKS
 
ADRIAN CLEAR 39 29 67 NW7 30.04R WCI 34  
ALMA CLEAR 33 29 86 N8 30.08R WCI 26  
ANN ARBOR CLEAR 39 29 67 NW8 30.02R WCI 33  
BAD AXE CLOUDY 32 31 95 N9 30.04R WCI 24  
CARO MOCLDY 32 27 83 CALM 30.05R HAZE  
DETROIT CITY CLEAR 39 30 70 NE8 30.02R WCI 33  
DETROIT PTCLDY 41 28 60 NW8 30.02R  
FLINT CLEAR 37 28 70 N9 30.04R WCI 30  
GROSSE ILE CLEAR 41 31 66 NW9 30.01R  
HILLSDALE CLEAR 35 31 85 NW7 30.04R WCI 29  
HOWELL CLOUDY 39 29 69 N3 30.04R  
 
CITY SKY/WX TMP DP RH WIND PRES REMARKS
 
JACKSON CLEAR 38 29 70 W7 30.05R WCI 33  
LAMBERTVILLE CLEAR 39 31 72 CALM 30.02R  
LANSING CLEAR 35 29 78 N13 30.07R WCI 26  
LAPEER MOCLDY 33 30 86 CALM 30.03R  
MASON CLEAR 36 30 80 NW5 30.05R WCI 32  
MONROE CLEAR 40 31 70 NW8 30.01R WCI 34  
MT. CLEMENS PTCLDY 33 33 99 N5 30.01R WCI 29  
PONTIAC MOCLDY 38 28 67 NW7 30.01R WCI 33  
PORT HOPE N/A 34 27 75 N12G21 30.03R WCI 25  
PORT HURON MOCLDY 34 30 86 N6 30.03R WCI 29  
TRI CITIES CLEAR 32 27 81 NW9 30.07R WCI 24  
MIDLAND MOCLDY 33 28 81 NW12 30.07R WCI 24  
SAGINAW HB CLEAR 32 29 88 N5 30.06R WCI 27  

 
MIZ043>046-050>051-056>058-064>065-071>073-077>080-040400-  
SOUTHWEST LOWER MICHIGAN  
 
CITY SKY/WX TMP DP RH WIND PRES REMARKS
 
BATTLE CREEK CLEAR 35 28 75 NW8 30.07R WCI 29  
BENTON HARBOR CLEAR 35 28 75 VRB3 30.11R  
BIG RAPIDS CLEAR 29 24 82 N10 30.09R WCI 20  
COLDWATER CLEAR 34 29 82 NW5 30.07R WCI 30  
FREMONT FAIR 30 27 88 NW6 30.11R WCI 24  
HOLLAND CLEAR 35 26 69 VRB7 30.11R WCI 29  
GRAND RAPIDS CLEAR 34 28 79 NW9 30.10R WCI 27  
IONIA FAIR 33 26 77 N7 30.08R WCI 27  
KALAMAZOO CLEAR 34 26 72 N9 30.08R WCI 27  
LUDINGTON CLEAR 29 25 83 N6 30.14R WCI 23  
MARSHALL CLEAR 33 29 85 CALM 30.06R  
MOUNT PLEASANT CLOUDY 33 26 75 NW8 30.07R WCI 26  
MUSKEGON CLEAR 33 25 72 N7 30.13R WCI 27  
SOUTH HAVEN CLEAR 33 29 86 N6 30.11R WCI 27  

 
MIZ016>042-040400-  
NORTHERN LOWER MICHIGAN  
 
CITY SKY/WX TMP DP RH WIND PRES REMARKS
 
ALPENA CLOUDY 29 20 69 NW13 30.09R WCI 19  
BEAVER ISLAND CLOUDY 26 17 69 N9G18 30.17R WCI 16  
BELLAIRE CLOUDY 28 19 70 N6 30.16R WCI 22  
CADILLAC CLOUDY 27 22 82 NW12G23 30.08R WCI 17  
CHARLEVOIX CLOUDY 27 19 73 NW13 30.16R WCI 16  
FRANKFORT MOCLDY 29 21 72 N7 30.16R WCI 22  
GAYLORD CLOUDY 26 16 65 NW9G18 30.08R WCI 17  
GRAYLING CLOUDY 26 21 81 N12 30.09R WCI 15  
HARBOR SPRINGS CLOUDY 25 17 72 NW8 30.14S WCI 16  
HOUGHTON LAKE CLOUDY 27 21 78 NW12G21 30.09R WCI 17  
MANISTEE CLEAR 29 24 82 N12 30.14R WCI 19  
OSCODA CLOUDY 32 24 72 NW15 30.06R WCI 22  
PELLSTON CLEAR 24 17 74 NW12 30.14R WCI 13  
ROGERS CITY CLOUDY 27 20 75 NW12G18 30.11R WCI 17  
TRAVERSE CITY CLOUDY 29 20 69 N9 30.15R WCI 20  

 
MIZ007>008-015-040400-  
EASTERN UPPER MICHIGAN  
 
CITY SKY/WX TMP DP RH WIND PRES REMARKS
 
KINROSS FLURRIES 23 18 81 W6 30.11R WCI 16  
MACKINAC ISLAN CLOUDY 26 19 73 W9 30.12R WCI 17  
NEWBERRY FLURRIES 25 18 74 NW9 30.12S WCI 15  
S. S. MARIE CLOUDY 26 14 60 N10G18 30.11R WCI 16  
MUNISING N/A 25 17 72 N17 30.19R WCI 12  

 
MIZ004>006-011>014-085-040400-  
CENTRAL UPPER MICHIGAN  
 
CITY SKY/WX TMP DP RH WIND PRES REMARKS
 
MANISTIQUE CLOUDY 26 17 71 N13G22 30.16S WCI 14  
ESCANABA CLEAR 24 16 71 N6G23 30.20R WCI 17  
MENOMINEE CLEAR 26 22 84 NE6 30.20R WCI 19  
SAWYER-GWINN CLOUDY 21 14 73 N9 30.17S WCI 11  

 
MIZ001>003-009>011-084-040400-  
WESTERN UPPER MICHIGAN  
 
CITY SKY/WX TMP DP RH WIND PRES REMARKS
 
IRON MOUNTAIN CLEAR 26 16 65 N10 30.16R WCI 16  
HOUGHTON CLOUDY 22 11 62 N7 30.22R WCI 13  
IRONWOOD CLEAR 23 19 85 E7 30.20R WCI 15  

 
 
ABBREVIATIONS USED IN REMARKS  
TC - TEMPERATURE IN CELSIUS  
WCI - WIND CHILL INDEX  
HX - HEAT INDEX  
VSB - VISIBILITY  
 
 
 
CLICK HERE TO GO TO PREVIOUS BULLETINS.

The Nexlab MI Page Main Text Page